Location: Burgwalden
(48.2830°N, 10.7576°E)
Time: 21:36:55
(UTC+00:00)

Cosmos 2082 Rocket - Pass Details

Date: 26 September 2023
Orbit: 834 x 852 km, 71.0° (Epoch: 09 December)

Event Time Altitude Azimuth Distance (km) Brightness Sun altitude
Exits shadow 01:02:07 32° 61° (ENE) 1,435 3.7 -36.8°
Drops below altitude 10° 01:05:26 10° 38° (NE) 2,489 5.4 -36.5°
Sets 01:07:59 0° 33° (NNE) 3,428 6.4 -36.2°
